Regional Weather Roundup
Issued by NWS Northern Indiana

Home | Current Version | Previous Version | Graphics & Text | Print | Product List | Glossary On
Versions: 1 2 3 4 5 6 7 8 9 10 11 12 13 14 15 16 17 18 19 20 21 22 23 24 25 26 27 28 29 30 31 32 33 34 35 36 37 38 39 40 41 42 43 44 45 46 47 48 49 50
000
ASUS43 KIWX 252200
RWRIWX

KIWX WEATHER ROUNDUP
NATIONAL WEATHER SERVICE NORTHERN INDIANA
600 PM EDT MON MAY 25 2015

NOTE: "FAIR" INDICATES FEW OR NO CLOUDS BELOW 12,000 FEET WITH NO
SIGNIFICANT WEATHER AND/OR OBSTRUCTIONS TO VISIBILITY.

* THESE STATIONS ARE NOT UNDER NWS QUALITY CONTROL. THEY ALSO MAY NOT
  REPORT WEATHER SUCH AS PRECIPITATION OR FOG.

INZ001>027-252300-
NORTHERN INDIANA

CITY           SKY/WX    TMP DP  RH WIND       PRES   REMARKS
GARY*          MOSUNNY   81  59  47 SW14G26   29.95R
SOUTH BEND     PTSUNNY   81  59  47 SW16G23   29.95R
ELKHART*       SUNNY     81  57  44 SW17G25   29.96R
GOSHEN         PTSUNNY   79  58  48 SW24G30   29.95S
ANGOLA*        MOSUNNY   79  73  83 SW20      29.96R
FORT WAYNE     PTSUNNY   78  63  59 SW22G30   30.00S

$$
INZ028>050-252300-
CENTRAL INDIANA

CITY           SKY/WX    TMP DP  RH WIND       PRES   REMARKS
LAFAYETTE      CLOUDY    78  62  57 SW14G25   29.98S
KOKOMO*        CLOUDY    79  63  57 SW17G24   30.00S
MUNCIE*        PTSUNNY   78  62  57 SW10G21   30.04S
INDIANAPOLIS   CLOUDY    77  63  61 S17       30.03S

$$
MIZ043>046-050>051-056>058-064>065-071>073-077>080-252300-
SOUTHWEST LOWER MICHIGAN

CITY           SKY/WX    TMP DP  RH WIND       PRES   REMARKS
BATTLE CREEK   MOSUNNY   78  65  63 W16G23    29.94R
BENTON HARBOR  PTSUNNY   74  60  61 W16G25    29.94R
COLDWATER*     PTSUNNY   78  57  48 SW22G29   29.94R
HILLSDALE*     PTSUNNY   79  59  49 SW17G29   29.96R
HOLLAND        PTSUNNY   73  61  65 SW20G28   29.93R
GRAND RAPIDS   PTSUNNY   75  61  61 W24G36    29.91R
KALAMAZOO      MOSUNNY   77  63  61 W18G26    29.94R
STURGIS*       PTSUNNY   81  59  47 SW18G26   29.95R
THREE RIVERS*  FAIR      79  58  49 W17G33    29.94S

$$
OHZ001>008-015>018-024>025-252300-
NORTHWEST OHIO

CITY           SKY/WX    TMP DP  RH WIND       PRES   REMARKS
DEFIANCE       MOSUNNY   80  62  54 SW17G28   29.98S
FINDLAY        PTSUNNY   82  62  50 SW23G31   30.01F
TOLEDO EXPRESS PTSUNNY   80  59  48 SW22G35   29.97F
TOLEDO METCALF MOSUNNY   82  61  48 S25G35    29.98F
LIMA           MOSUNNY   78  61  55 SW18G26   30.03F

$$
AND FOR LAKE MICHIGAN COASTAL AND OPEN LAKE BUOY OBSERVATIONS

STATION/POSITION TEMP    WIND        PRES    VSBY  WAVE
                 AIR SEA DIR/SP/G                  HT/PER
                 (F)     (DEG/KT/KT) (MB)    (MI)  (FT/S)
CALUMET HARBOR    78     230/ 12/ 17   N/A
MICHIGAN CITY     70     220/ 18/ 20   N/A
BURNS HARBOR      77     240/ 14/ 21 1014.2S
SAINT JOSEPH      66     180/ 11/ 18 1014.9R
SOUTH LAKE BUOY   46 38  200/ 10/ 12 1013.1R         2/ 5
4 MI NW BRIDGMAN  61 55  260/ 10/ 12   N/A           3/ 4
MICHIGAN CITY     61 52  240/  8/ 10   N/A           2/ 4
MICHIGAN CITY CG                     1015.8S     6   1

$$
&&


USA.gov is the U.S. government's official web portal to all federal, state and local government web resources and services.